[[{"header":{"parameterUnit":"m.s-1","parameterCategory":1,"la1":30.2991,"la2":30.254,"lo1":-89.0895,"lo2":-89.0444,"dy":0.0017,"dx":0.0017,"nx":28,"ny":28,"refTime":"2025-08-03T09:00:00:Z","depth":0,"parameterNumber":2,"parameterNumberName":"U-component_of_WINDS"},"data":[0,0,0,0,0,0,0,0,0,0,0,0,0,0,0,0,0,0,0,0,0,0,0,0,0,0,0,0,0,0,0,0,0,0,0,0,0,0,0,0,0,0,0,0,0,0,0,0,0,0,0,0,0,0,0,0,0,0,-0.5549,-0.5547,0,-0.5415,-0.5414,-0.5412,-0.5337,-0.5337,-0.5336,-0.5336,-0.5197,-0.5194,-0.519,0,0,0,0,0,0,0,0,0,0,0,0,0,-0.5737,-0.5734,-0.5549,-0.5547,-0.5545,-0.5415,-0.5414,-0.5412,-0.5337,-0.5337,-0.5336,-0.5336,-0.5198,-0.5194,-0.519,0,0,0,0,0,0,0,0,0,0,0,0,0,-0.5635,-0.5733,-0.5549,-0.5492,-0.5486,-0.5416,-0.5414,-0.5411,-0.5337,-0.5337,-0.5336,-0.5336,-0.5199,-0.5194,-0.5189,-0.5164,0,0,-0.5173,-0.5171,0,0,0,0,0,0,0,0,-0.5641,-0.5628,-0.5502,-0.5496,-0.5489,-0.5392,-0.5429,-0.5328,-0.5337,-0.5393,-0.5336,-0.5336,-0.5262,-0.5252,-0.5227,-0.5158,-0.5152,-0.5173,-0.517,-0.5167,-0.5166,0,0,0,0,0,0,0,-0.5648,-0.5633,-0.5496,-0.5501,-0.5492,-0.5473,-0.5458,-0.5409,-0.5331,-0.5389,-0.5383,-0.5368,-0.5258,-0.5233,-0.5224,-0.515,-0.5173,-0.5168,-0.5165,-0.5163,-0.5053,-0.5053,0,0,0,0,0,0,-0.5664,-0.564,-0.55,-0.5492,-0.5565,-0.547,-0.5453,-0.5424,-0.5332,-0.5317,-0.5369,-0.5365,-0.5242,-0.523,-0.5218,-0.5183,-0.5167,-0.5163,-0.516,-0.5053,-0.5053,-0.5053,0,0,0,0,0,0,-0.5669,-0.5652,-0.5505,-0.5564,-0.5544,-0.5467,-0.5435,-0.5421,-0.5395,-0.5317,-0.5302,-0.5357,-0.5241,-0.5226,-0.5178,-0.5177,-0.516,-0.5155,-0.5052,-0.5053,-0.5053,-0.5112,0,0,0,0,0,0,-0.5674,-0.5654,-0.5645,-0.5564,-0.5541,-0.5468,-0.5434,-0.5419,-0.5387,-0.5381,-0.5302,-0.5288,-0.5239,-0.5187,-0.5173,-0.5169,-0.5151,-0.5052,-0.5052,-0.5053,-0.5109,-0.5114,-0.5118,0,0,0,0,0,-0.5681,-0.5666,-0.5644,-0.5628,-0.5527,-0.5468,-0.5455,-0.54,-0.5387,-0.5376,-0.5326,-0.5291,-0.518,-0.5182,-0.5167,-0.5161,-0.5052,-0.5052,-0.5053,-0.5108,-0.5113,-0.5118,0,0,0,0,0,0,-0.5747,-0.5654,-0.5629,-0.5588,-0.5537,-0.5456,-0.544,-0.5407,-0.5358,-0.5355,-0.5288,-0.5271,-0.523,-0.5191,-0.5196,-0.5132,-0.5112,-0.5109,-0.5159,-0.5163,-0.5168,-0.5177,-0.5147,0,0,0,0,0,-0.5757,-0.5717,-0.5638,-0.5609,-0.5585,-0.5518,-0.549,-0.5452,-0.5396,-0.5374,-0.532,-0.5266,-0.5219,-0.5189,-0.5141,-0.5104,-0.5085,-0.5092,-0.5097,-0.51,-0.5098,-0.5075,-0.5078,-0.5055,-0.5055,-0.5055,0,0,-0.5776,-0.5721,-0.57,-0.5621,-0.5577,-0.5537,-0.55,-0.5459,-0.5429,-0.5367,-0.5319,-0.5278,-0.5214,-0.5171,-0.515,-0.5138,-0.5101,-0.5101,-0.5105,-0.51,-0.5076,-0.5078,-0.508,-0.5055,-0.5055,-0.5055,0,0,-0.5791,-0.5745,-0.5716,-0.5673,-0.5607,-0.5562,-0.5556,-0.548,-0.545,-0.5402,-0.5355,-0.5317,-0.5238,-0.5194,-0.5161,-0.5161,-0.5127,-0.5147,-0.5168,-0.5147,-0.5149,-0.515,-0.5149,-0.515,-0.5146,-0.5146,-0.5146,0,-0.5823,-0.5761,-0.5705,-0.5667,-0.5634,-0.5578,-0.5547,-0.5508,-0.543,-0.5408,-0.5395,-0.5295,-0.5247,-0.5194,-0.5194,-0.517,-0.5159,-0.5155,-0.5153,-0.5154,-0.5154,-0.5152,-0.5152,-0.5149,-0.5149,-0.5148,-0.5148,0,-0.5804,-0.5762,-0.5746,-0.5673,-0.5638,-0.5604,-0.5542,-0.5513,-0.5479,-0.5436,-0.5387,-0.5329,-0.5268,-0.5253,-0.5219,-0.5194,-0.5189,-0.5166,-0.5144,-0.516,-0.5157,-0.5156,-0.5153,-0.5152,-0.5151,-0.5151,0,0,-0.5855,-0.5752,-0.5747,-0.5713,-0.5637,-0.5603,-0.5567,-0.5509,-0.5485,-0.5433,-0.5401,-0.5335,-0.5314,-0.5277,-0.5237,-0.5219,-0.5222,-0.5197,-0.5195,-0.5203,-0.5191,-0.5208,-0.5208,-0.5199,-0.5199,-0.5199,-0.5196,0,-0.5858,-0.579,-0.5739,-0.569,-0.5651,-0.5598,-0.5566,-0.5516,-0.5475,-0.5435,-0.5389,-0.5344,-0.5319,-0.5296,-0.5276,-0.5226,-0.5218,-0.5225,-0.5167,-0.5166,-0.5184,-0.5207,-0.5224,-0.5225,-0.5195,-0.5194,-0.5194,0,-0.5852,-0.5803,-0.5751,-0.568,-0.5661,-0.5634,-0.5576,-0.5539,-0.5481,-0.5452,-0.5412,-0.5372,-0.533,-0.5314,-0.5256,-0.5262,-0.5235,-0.5208,-0.5206,-0.5198,-0.518,-0.5198,-0.5223,-0.5223,-0.5192,-0.5192,-0.5193,0,-0.5894,-0.5815,-0.5773,-0.5746,-0.5662,-0.5644,-0.5607,-0.5549,-0.5518,-0.5467,-0.5446,-0.5392,-0.5362,-0.5321,-0.5267,-0.526,-0.5214,-0.5193,-0.5188,-0.519,-0.518,-0.5181,-0.5201,-0.5165,-0.5165,-0.5165,-0.5165,0,-0.5902,-0.5872,-0.5791,-0.5765,-0.573,-0.5672,-0.5638,-0.5598,-0.5546,-0.5512,-0.5463,-0.5431,-0.5362,-0.5322,-0.528,-0.5238,-0.5225,-0.52,-0.5189,-0.5204,-0.5207,-0.5184,-0.5182,-0.5165,-0.5165,-0.5165,-0.5165,0,-0.5941,-0.5886,-0.5837,-0.5762,-0.5742,-0.572,-0.5655,-0.5628,-0.5585,-0.5541,-0.5528,-0.546,-0.541,-0.5353,-0.5284,-0.5255,-0.5217,-0.5201,-0.5237,-0.523,-0.5228,-0.5229,-0.5233,-0.523,-0.5198,-0.5199,-0.5199,0,-0.595,-0.5925,-0.5848,-0.5821,-0.5787,-0.5745,-0.5713,-0.5654,-0.5622,-0.5555,-0.5536,-0.5483,-0.5438,-0.5361,-0.5305,-0.5252,-0.5234,-0.5239,-0.5226,-0.5241,-0.5233,-0.5235,-0.5232,-0.5242,-0.5243,-0.5244,-0.5244,0,-0.597,-0.5944,-0.59,-0.5846,-0.5809,-0.5764,-0.5717,-0.5698,-0.563,-0.5597,-0.5546,-0.5511,-0.5442,-0.5389,-0.533,-0.5292,-0.5256,-0.5249,-0.5245,-0.5259,-0.5281,-0.5268,-0.5245,-0.5249,-0.5248,-0.5248,-0.5248,-0.5248,-0.5993,-0.5969,-0.5911,-0.5863,-0.5822,-0.5779,-0.575,-0.5704,-0.5661,-0.56,-0.5568,-0.5518,-0.546,-0.5377,-0.5341,-0.53,-0.5288,-0.5282,-0.5281,-0.528,-0.5284,-0.5289,-0.5289,-0.5289,-0.5289,-0.5289,-0.5288,0,-0.601,-0.597,-0.5927,-0.5863,-0.5826,-0.5797,-0.5743,-0.5714,-0.567,-0.562,-0.5577,-0.5519,-0.5468,-0.5409,-0.5354,-0.5333,-0.5316,-0.5321,-0.5321,-0.5313,-0.5298,-0.5307,-0.5336,-0.5336,-0.5336,-0.5336,-0.5336,-0.5336,-0.6014,-0.5972,-0.594,-0.5876,-0.5836,-0.5787,-0.5759,-0.5719,-0.5679,-0.5616,-0.5574,-0.5537,-0.5483,-0.5424,-0.5376,-0.536,-0.5342,-0.5352,-0.5331,-0.5318,-0.5314,-0.531,-0.5318,-0.5349,-0.5349,-0.5348,-0.5348,-0.5348]},{"header":{"parameterUnit":"m.s-1","parameterCategory":1,"la1":30.2991,"la2":30.254,"lo1":-89.0895,"lo2":-89.0444,"dy":0.0017,"dx":0.0017,"nx":28,"ny":28,"refTime":"2025-08-03T09:00:00:Z","depth":0,"parameterNumber":3,"parameterNumberName":"V-component_of_WINDS"},"data":[0,0,0,0,0,0,0,0,0,0,0,0,0,0,0,0,0,0,0,0,0,0,0,0,0,0,0,0,0,0,0,0,0,0,0,0,0,0,0,0,0,0,0,0,0,0,0,0,0,0,0,0,0,0,0,0,0,0,3.263,3.2629,0,3.2619,3.2619,3.2619,3.2652,3.2653,3.2654,3.2655,3.2639,3.2638,3.2636,0,0,0,0,0,0,0,0,0,0,0,0,0,3.2674,3.2673,3.263,3.2629,3.2629,3.2619,3.2619,3.2619,3.2652,3.2653,3.2655,3.2656,3.264,3.2638,3.2636,0,0,0,0,0,0,0,0,0,0,0,0,0,3.2658,3.2672,3.263,3.2645,3.2646,3.2619,3.2619,3.2619,3.2652,3.2653,3.2655,3.2656,3.264,3.2638,3.2636,3.2592,0,0,3.263,3.2629,0,0,0,0,0,0,0,0,3.2659,3.2656,3.2643,3.2644,3.2645,3.2639,3.2629,3.261,3.2651,3.2649,3.2655,3.2657,3.2637,3.2636,3.263,3.2591,3.2591,3.2629,3.2628,3.2627,3.2627,0,0,0,0,0,0,0,3.266,3.2657,3.2625,3.2642,3.2644,3.2651,3.265,3.2625,3.2635,3.265,3.2652,3.2651,3.2638,3.2632,3.263,3.259,3.2629,3.2628,3.2626,3.2626,3.2514,3.2512,0,0,0,0,0,0,3.266,3.2657,3.2626,3.2625,3.2656,3.2649,3.2648,3.2639,3.2635,3.2636,3.2649,3.2652,3.2635,3.2632,3.2629,3.2577,3.2627,3.2625,3.2624,3.2516,3.2514,3.2512,0,0,0,0,0,0,3.266,3.2656,3.2626,3.2642,3.2639,3.2646,3.2636,3.2638,3.2632,3.2635,3.2636,3.2642,3.2636,3.2632,3.2601,3.2577,3.2624,3.2622,3.2518,3.2515,3.2513,3.2472,0,0,0,0,0,0,3.2662,3.2657,3.2641,3.2641,3.2638,3.2599,3.2634,3.2637,3.2629,3.2632,3.2628,3.2628,3.2637,3.2604,3.2599,3.2575,3.2621,3.252,3.2516,3.2513,3.2475,3.2468,3.2462,0,0,0,0,0,3.2663,3.2629,3.264,3.2636,3.2619,3.2598,3.2596,3.2607,3.2627,3.261,3.2612,3.2629,3.2581,3.2601,3.2595,3.257,3.2521,3.2517,3.2514,3.2478,3.2469,3.2462,0,0,0,0,0,0,3.2624,3.2629,3.2642,3.2607,3.2602,3.2604,3.2584,3.2598,3.2586,3.2589,3.2603,3.2602,3.2568,3.2566,3.2588,3.2527,3.2554,3.2549,3.2529,3.2521,3.2514,3.2514,3.2619,0,0,0,0,0,3.2612,3.2596,3.2601,3.257,3.2567,3.2576,3.2567,3.2577,3.2571,3.2569,3.2568,3.2561,3.2544,3.2532,3.2517,3.2476,3.2474,3.2455,3.2449,3.2443,3.2438,3.2415,3.2406,3.2499,3.2499,3.2499,0,0,3.2585,3.2586,3.2575,3.2562,3.2559,3.2541,3.2573,3.2553,3.2539,3.2565,3.2536,3.2535,3.2528,3.2491,3.2475,3.2488,3.2412,3.2438,3.2434,3.2432,3.241,3.2401,3.2393,3.2496,3.2497,3.2497,0,0,3.2528,3.2528,3.2502,3.2499,3.2494,3.2501,3.2494,3.2494,3.2495,3.2466,3.2485,3.2468,3.2439,3.2433,3.2425,3.2366,3.238,3.236,3.2325,3.2302,3.2294,3.2288,3.2265,3.2257,3.2356,3.2356,3.2355,0,3.2495,3.247,3.2486,3.2464,3.2457,3.2482,3.2454,3.245,3.244,3.2434,3.245,3.2414,3.2411,3.2372,3.2358,3.2352,3.2343,3.236,3.2295,3.2288,3.2282,3.2261,3.2252,3.2353,3.2353,3.2354,3.2354,0,3.2429,3.2412,3.2391,3.2382,3.2373,3.2348,3.2359,3.2347,3.2358,3.2362,3.2331,3.2328,3.2313,3.2304,3.2314,3.2267,3.2275,3.2293,3.232,3.2271,3.2251,3.2243,3.235,3.235,3.2351,3.2352,0,0,3.2346,3.2347,3.2339,3.2336,3.2333,3.2319,3.2294,3.2281,3.227,3.2262,3.2241,3.2216,3.2233,3.2225,3.2234,3.2214,3.2165,3.2233,3.2233,3.2219,3.2111,3.2097,3.2087,3.2175,3.2173,3.2172,3.2111,0,3.2288,3.2249,3.2263,3.2222,3.2204,3.2228,3.2207,3.2202,3.2204,3.2189,3.2192,3.2173,3.2197,3.2192,3.2174,3.2175,3.2143,3.2179,3.2153,3.2152,3.2153,3.2077,3.2062,3.2004,3.2103,3.2102,3.2101,0,3.2216,3.2207,3.2165,3.2165,3.2158,3.2139,3.2127,3.2113,3.2107,3.2111,3.2102,3.2115,3.2089,3.2118,3.2082,3.2107,3.2097,3.2096,3.2094,3.209,3.2122,3.207,3.1986,3.1977,3.2089,3.209,3.2091,0,3.2158,3.2135,3.2107,3.2103,3.2103,3.2089,3.2087,3.2084,3.2074,3.2063,3.2057,3.2043,3.2034,3.2022,3.203,3.2051,3.1992,3.2022,3.1992,3.1992,3.1978,3.1978,3.189,3.1974,3.1974,3.1974,3.1974,0,3.2091,3.2064,3.2081,3.2063,3.2033,3.2048,3.2017,3.2018,3.2015,3.1996,3.2015,3.1997,3.201,3.1992,3.1998,3.1967,3.1963,3.1964,3.1965,3.1961,3.1961,3.1954,3.1957,3.1972,3.1972,3.1973,3.1973,0,3.2021,3.2031,3.2001,3.2004,3.2004,3.1981,3.1982,3.1965,3.197,3.1946,3.1941,3.1948,3.1928,3.1936,3.1914,3.1919,3.1878,3.1885,3.188,3.1881,3.1851,3.1853,3.1754,3.1741,3.1834,3.1833,3.1832,0,3.1977,3.1957,3.1957,3.1947,3.1945,3.1929,3.192,3.1934,3.1923,3.1915,3.1898,3.1881,3.1867,3.1835,3.1836,3.182,3.1826,3.1792,3.1823,3.182,3.1824,3.1824,3.1821,3.1785,3.1784,3.1783,3.1783,0,3.1898,3.1904,3.1891,3.188,3.1869,3.186,3.1853,3.1843,3.1857,3.1844,3.1825,3.1814,3.1793,3.1775,3.176,3.1757,3.1771,3.1773,3.1765,3.176,3.1757,3.1757,3.1861,3.1775,3.1776,3.1776,3.1777,3.1777,3.1838,3.1821,3.1819,3.1804,3.18,3.1793,3.1777,3.178,3.1765,3.175,3.1759,3.1736,3.173,3.1712,3.1707,3.1688,3.1701,3.169,3.1687,3.1683,3.1679,3.1762,3.1686,3.1686,3.1686,3.1686,3.1686,0,3.1759,3.1759,3.1745,3.1735,3.1723,3.174,3.1733,3.172,3.1701,3.1695,3.1682,3.1659,3.1642,3.1642,3.1625,3.161,3.1616,3.1605,3.1605,3.1604,3.1669,3.1677,3.16,3.16,3.16,3.16,3.16,3.16,3.1717,3.1688,3.1694,3.1664,3.1663,3.1643,3.1637,3.163,3.1625,3.16,3.1586,3.1587,3.1583,3.1566,3.155,3.155,3.1542,3.1528,3.1531,3.1591,3.16,3.1608,3.1615,3.1527,3.1527,3.1467,3.1467,3.1466]}]]